Home > Weather > Boulder > Past weeks

Flag for USA Past Weather in Boulder, Colorado, USA — Yesterday and Last 2 Weeks

Now
73 °F

Clear.


Feels Like: 77 °F
Forecast: 63 / 92 °F
Wind: 7 mph from South

Location: Broomfield / Jeffco

Current Time: Jul 26, 2016 at 12:34:43 AM

Latest Report: Jul 26, 2016 at 12:15 AM


Visibility: 10 mi

Pressure: 30.18 "Hg (25.03 "Hg at 1623m altitude)

Humidity: 38%

Dew Point: 46 °F

Location of BoulderLocation

Past Weather in Boulder — Graph

°F

Boulder Temperature Yesterday

Maximum temperature yesterday: 90 °F (at 5:51 PM)
Minimum temperature yesterday: 55 °F (at 4:16 AM)
Average temperature yesterday: 69 °F

High & Low Weather Summary for the Past Weeks

 TemperatureHumidityPressure
High97 °F (Jul 23, 2:51 PM)94% (Jul 16, 3:36 AM)30.32 "Hg (Jul 16, 3:36 AM)
Low55 °F (Jul 12, 5:56 AM)11% (Jul 13, 3:45 PM)29.79 "Hg (Jul 10, 11:15 PM)
Average73 °F44%30.16 "Hg
* Reported Jul 10 11:15 PM — Jul 25 11:34 PM, Boulder, Weather by CustomWeather, © 2016

Note: Actual official high and low records may vary slightly from our data, if they occured in-between our weather recording intervals... More about our weather records

Advertising

Boulder Weather History for the Previous 24 Hours

Scroll right to see more
 ConditionsComfort  
Time TempWeatherWind HumidityBarometerVisibility
11:34 PM
Mon, Jul 25
73 °FClear.10 mph36%30.19 "Hg10 mi
11:15 PM73 °FClear.5 mph36%30.19 "Hg10 mi
9:50 PM75 °FPartly cloudy.8 mph39%30.18 "Hg20 mi
8:45 PM79 °FBroken clouds.9 mph32%30.16 "Hg20 mi
7:45 PM86 °FBroken clouds.No wind33%30.15 "Hg30 mi
6:50 PM84 °FBroken clouds.5 mph35%30.15 "Hg30 mi
5:51 PM90 °FBroken clouds.7 mph29%30.15 "Hg40 mi
4:49 PM88 °FBroken clouds.9 mph33%30.15 "Hg30 mi
3:48 PM82 °FBroken clouds.7 mph40%30.18 "Hg25 mi
2:47 PM88 °FBroken clouds.15 mph33%30.19 "Hg25 mi
1:47 PM88 °FScattered clouds.12 mph29%30.21 "Hg30 mi
12:49 PM82 °FScattered clouds.3 mph35%30.21 "Hg30 mi
11:49 AM81 °FScattered clouds.5 mph37%30.22 "Hg30 mi
10:49 AM75 °FScattered clouds.No wind50%30.23 "Hg30 mi
9:47 AM72 °FPassing clouds.5 mph61%30.24 "Hg30 mi
8:46 AM70 °FPassing clouds.7 mph60%30.24 "Hg30 mi
7:48 AM66 °FPassing clouds.No wind68%30.22 "Hg30 mi
6:48 AM61 °FPassing clouds.5 mph83%30.22 "Hg50 mi
5:56 AM57 °FClear.No wind82%30.23 "Hg10 mi
5:36 AM57 °FClear.5 mph82%30.23 "Hg10 mi
5:16 AM57 °FClear.5 mph82%30.24 "Hg10 mi
4:56 AM55 °FClear.3 mph94%30.24 "Hg10 mi
4:34 AM55 °FClear.7 mph88%30.24 "Hg10 mi
4:16 AM55 °FClear.8 mph88%30.26 "Hg10 mi
3:55 AM57 °FClear.5 mph88%30.26 "Hg10 mi
3:36 AM59 °FClear.No wind88%30.26 "Hg10 mi
3:16 AM59 °FClear.5 mph88%30.25 "Hg10 mi
2:55 AM59 °FClear.No wind88%30.26 "Hg10 mi
2:35 AM61 °FClear.3 mph83%30.26 "Hg10 mi
2:15 AM61 °FClear.8 mph83%30.26 "Hg10 mi
1:55 AM61 °FClear.8 mph83%30.26 "Hg10 mi
1:35 AM63 °FClear.6 mph77%30.28 "Hg10 mi
1:16 AM63 °FClear.5 mph77%30.28 "Hg10 mi
12:55 AM64 °FClear.3 mph68%30.29 "Hg10 mi
12:35 AM63 °FClear.3 mph73%30.30 "Hg10 mi
12:16 AM64 °FClear.No wind68%30.31 "Hg10 mi
Weather by CustomWeather, © 2016

See weather overviewHow to use our weather pages